Flag for Australia Weather past 2 weeks in The Settlement, Christmas Island, Australia

Now
82 °F

Partly sunny.


Feels Like: 89 °F
Forecast: 74 / 83 °F
Wind: 10 mph from Southeast

Location: Christmas Island Aerodrome

Current Time: Apr 1, 2015 at 3:46:59 PM

Latest Report: Apr 1, 2015 at 3:00 PM


Visibility: N/A

Pressure: 29.83 "Hg

Humidity: 79%

Dew point: 75 °F

Location of The SettlementLocation

Historic Weather in The Settlement — Graph

°F

The Settlement temperature yesterday

Maximum temperature yesterday: 84 °F (at 11:00 AM)
Minimum temperature yesterday: 79 °F (at 12:00 AM)
Average temperature yesterday: 80 °F

Past Weeks' High & Low Weather Summary

 TemperatureHumidityPressure
High84 °F (Mar 17, 3:00 PM)100% (Mar 19, 5:00 AM)30.01 "Hg (Mar 19, 5:00 AM)
Low73 °F (Mar 18, 2:00 AM)62% (Mar 17, 3:00 PM)29.83 "Hg (Mar 17, 4:00 PM)
Average79 °F86%29.91 "Hg
* Reported Mar 17 2:00 PM — Apr 1 2:00 PM, The Settlement, Weather by CustomWeather, © 2015

Note: Actual official high and low records may vary slightly from our data, if they occured in-between our weather recording intervals... More about our weather records

Advertising

The Settlement weather history for previous 24 hours

 ConditionsComfort  
Time TempWeatherWind HumidityBarometerVisibility
2:00 PM
Wed, Apr 1
82 °FScattered clouds.12 mph79%29.83 "HgN/A
1:00 PM84 °FScattered clouds.12 mph70%29.86 "HgN/A
12:00 PM82 °FScattered clouds.13 mph74%29.89 "HgN/A
11:00 AM84 °FScattered clouds.12 mph70%29.92 "HgN/A
10:00 AM82 °FScattered clouds.12 mph79%29.95 "HgN/A
9:00 AM82 °FPartly sunny.12 mph74%29.95 "HgN/A
8:00 AM82 °FPartly sunny.10 mph79%29.92 "HgN/A
7:00 AM81 °FPartly sunny.10 mph84%29.92 "HgN/A
6:00 AM79 °FPassing clouds.10 mph89%29.92 "HgN/A
5:00 AM79 °FPassing clouds.9 mph84%29.89 "HgN/A
4:00 AM79 °FPassing clouds.8 mph89%29.89 "HgN/A
3:00 AM79 °FPartly cloudy.9 mph84%29.89 "HgN/A
2:00 AM79 °FPassing clouds.8 mph89%29.92 "HgN/A
1:00 AM79 °FPassing clouds.7 mph89%29.92 "HgN/A
12:00 AM79 °FPassing clouds.8 mph89%29.95 "HgN/A
11:00 PM
Tue, Mar 31
79 °FPassing clouds.10 mph89%29.95 "HgN/A
10:00 PM79 °FPassing clouds.10 mph89%29.95 "HgN/A
9:00 PM79 °FPassing clouds.9 mph89%29.95 "HgN/A
8:00 PM81 °FPartly cloudy.9 mph79%29.92 "HgN/A
7:00 PM79 °FPassing clouds.8 mph84%29.92 "HgN/A
6:00 PM81 °FBroken clouds.9 mph79%29.89 "HgN/A
5:00 PM82 °FScattered clouds.9 mph74%29.89 "HgN/A
4:00 PM81 °FBroken clouds.10 mph79%29.86 "HgN/A
3:00 PM82 °FScattered clouds.12 mph74%29.86 "HgN/A
Weather by CustomWeather, © 2015

See weather overviewHow to use our weather pages